Weather History for Mountain Home, ID

Change the Weather History Date:

Wednesday, October 19, 2011

  Actual Average Record
Temperature  
Mean Temperature 50 °F 50 °F  
Max Temperature 64 °F 65 °F 85 °F (1940)
Min Temperature 35 °F 35 °F 12 °F (1999)
Degree Days  
Heating Degree Days 15 15  
Month to date heating degree days 203 212  
Cooling Degree Days 0 0  
Month to date cooling degree days 13 2  
Moisture  
Dew Point 37 °F    
Average Humidity 80    
Maximum Humidity 99    
Minimum Humidity 40    
Precipitation  
Precipitation 0.00 in 0.02 in 0.58 in (1979)
Month to date precipitation 2.17 0.41  
Sea Level Pressure  
Sea Level Pressure 30.05 in    
Wind  
Wind Speed 4 mph (NNE)    
Max Wind Speed 14 mph    
Max Gust Speed -    
Visibility 6 miles    
Events      
T = Trace of Precipitation, MM = Missing Value Source: NWS Daily Summary

Daily Weather History Graph

Daily Weather History Graph

Search for Another Location

Airport:

Trip Planner

Search our weather history database for the weather conditions in past years. The results will help you decide how hot, cold, wet, or windy it might be!

Date:

Astronomy

Oct. 19, 2011 Rise Set
Actual Time 8:01 AM MDT 6:54 PM MDT
Civil Twilight 7:32 AM MDT 7:23 PM MDT
Nautical Twilight 6:59 AM MDT 7:56 PM MDT
Astronomical Twilight 6:26 AM MDT 8:29 PM MDT
Moon No Moon Rise 2:39 PM MDT (10/19)
Length of Visible Light 11h 50m
Length of Day
10h 52m
Waning Gibbous, 54% of the Moon is Illuminated
Oct 19
Waning Gibbous
Oct 19
Last Quarter
Oct 26
New
Nov 2
First Quarter
Nov 10
Full

Hourly Weather History & Observations

Time (MDT) Temp. Windchill Dew Point Humidity Pressure Visibility Wind Dir Wind Speed Gust Speed Precip Events Conditions
12:55 AM 41.0 °F 36.4 °F 38.5 °F 91% 30.11 in 10.0 mi SSE 6.9 mph - 0.00 in   Clear
1:30 AM 41.0 °F - 39.2 °F 93% 30.09 in 3.0 mi Calm Calm - N/A   Clear
1:36 AM 41.0 °F 39.0 °F 39.2 °F 93% 30.09 in 1.2 mi NW 3.5 mph - N/A   Clear
1:45 AM 41.0 °F 37.1 °F 37.4 °F 87% 30.09 in 2.0 mi NNW 5.8 mph - N/A   Clear
1:55 AM 41.2 °F 38.2 °F 37.4 °F 86% 30.09 in 2.5 mi NNW 4.6 mph - 0.00 in   Clear
2:01 AM 41.0 °F 39.0 °F 37.4 °F 87% 30.10 in 2.5 mi NNW 3.5 mph - N/A   Clear
2:08 AM 42.8 °F - 35.6 °F 76% 30.09 in 3.0 mi Calm Calm - N/A   Haze
2:20 AM 42.8 °F 40.1 °F 37.4 °F 81% 30.08 in 3.0 mi NE 4.6 mph - N/A   Haze
2:30 AM 41.0 °F 35.8 °F 37.4 °F 87% 30.07 in 8.0 mi NE 8.1 mph - N/A   Clear
2:55 AM 38.8 °F 34.6 °F 35.6 °F 88% 30.07 in 10.0 mi East 5.8 mph - 0.00 in   Clear
3:04 AM 39.2 °F 35.0 °F 35.6 °F 87% 30.08 in 1.5 mi West 5.8 mph - N/A   Clear
3:06 AM 39.2 °F 35.0 °F 35.6 °F 87% 30.08 in 1.2 mi West 5.8 mph - N/A   Clear
3:13 AM 37.4 °F - 35.6 °F 93% 30.07 in 1.0 mi Calm Calm - N/A   Clear
3:22 AM 37.4 °F - 35.6 °F 93% 30.07 in 1.2 mi Calm Calm - N/A   Clear
3:44 AM 37.4 °F - 35.6 °F 93% 30.08 in 1.8 mi Calm Calm - N/A   Clear
3:55 AM 36.5 °F - 35.4 °F 96% 30.08 in 2.0 mi Calm Calm - N/A   Clear
3:57 AM 37.4 °F 34.9 °F 35.6 °F 93% 30.08 in 2.5 mi WNW 3.5 mph - N/A   Clear
4:10 AM 37.4 °F 34.9 °F 35.6 °F 93% 30.07 in 3.0 mi North 3.5 mph - N/A   Clear
4:13 AM 37.4 °F 34.9 °F 35.6 °F 93% 30.07 in 3.0 mi North 3.5 mph - N/A   Clear
4:55 AM 35.2 °F 30.3 °F 34.9 °F 99% 30.06 in 6.0 mi ENE 5.8 mph - N/A   Clear
5:07 AM 35.6 °F 32.8 °F 33.8 °F 93% 30.05 in 2.5 mi NNE 3.5 mph - N/A   Clear
5:11 AM 35.6 °F - 33.8 °F 93% 30.05 in 1.8 mi Calm Calm - N/A   Clear
5:17 AM 37.4 °F 33.8 °F 33.8 °F 87% 30.05 in 1.8 mi NNE 4.6 mph - N/A   Clear
5:24 AM 35.6 °F 32.8 °F 33.8 °F 93% 30.05 in 2.0 mi NE 3.5 mph - N/A   Clear
5:27 AM 37.4 °F 33.8 °F 33.8 °F 87% 30.05 in 2.0 mi NE 4.6 mph - N/A   Clear
5:55 AM 38.1 °F - 35.4 °F 90% 30.05 in 2.5 mi Calm Calm - N/A   Clear
6:11 AM 37.4 °F - 35.6 °F 93% 30.04 in 2.5 mi Calm Calm - N/A   Clear
6:55 AM 39.0 °F 35.7 °F 36.3 °F 90% 30.03 in 6.0 mi NE 4.6 mph - N/A   Clear
7:24 AM 42.8 °F 41.1 °F 37.4 °F 81% 30.03 in 7.0 mi NNE 3.5 mph - N/A   Mostly Cloudy
7:55 AM 43.3 °F 40.7 °F 37.4 °F 80% 30.03 in - ENE 4.6 mph - N/A   Mostly Cloudy
8:29 AM 41.0 °F 38.0 °F 37.4 °F 87% 30.03 in 7.0 mi ENE 4.6 mph - N/A   Mostly Cloudy
8:55 AM 41.5 °F 37.1 °F 37.9 °F 87% 30.04 in 10.0 mi NE 6.9 mph - N/A   Mostly Cloudy
9:55 AM 44.8 °F 41.6 °F 39.2 °F 81% 30.04 in 10.0 mi ENE 5.8 mph - N/A   Mostly Cloudy
10:55 AM 48.0 °F - 38.5 °F 70% 30.06 in 10.0 mi East 4.6 mph - N/A   Mostly Cloudy
11:55 AM 52.5 °F - 38.1 °F 58% 30.04 in 10.0 mi ENE 8.1 mph - N/A   Mostly Cloudy
12:55 PM 56.8 °F - 36.9 °F 47% 30.02 in 10.0 mi East 9.2 mph - N/A   Mostly Cloudy
1:00 PM 57.2 °F - 37.4 °F 48% 30.02 in 10.0 mi East 6.9 mph - N/A   Mostly Cloudy
1:55 PM 56.7 °F - 36.5 °F 47% 30.01 in 10.0 mi East 4.6 mph - N/A   Scattered Clouds
2:55 PM 60.3 °F - 37.2 °F 42% 29.98 in 10.0 mi NNW 4.6 mph - N/A   Partly Cloudy
3:55 PM 62.1 °F - 39.6 °F 44% 29.99 in 10.0 mi Variable 6.9 mph - N/A   Partly Cloudy
4:55 PM 63.3 °F - 38.5 °F 40% 29.99 in 10.0 mi WNW 10.4 mph - N/A   Partly Cloudy
5:55 PM 61.7 °F - 39.6 °F 44% 30.01 in 10.0 mi NW 13.8 mph - N/A   Partly Cloudy
6:55 PM 55.9 °F - 41.7 °F 59% 30.01 in 10.0 mi NW 6.9 mph - N/A   Partly Cloudy
7:55 PM 50.4 °F - 40.8 °F 70% 30.03 in 10.0 mi WNW 8.1 mph - N/A   Clear
8:55 PM 48.9 °F - 40.3 °F 72% 30.05 in 10.0 mi NW 5.8 mph - N/A   Clear
9:55 PM 46.9 °F - 40.8 °F 79% 30.05 in 10.0 mi North 3.5 mph - N/A   Clear
10:55 PM 41.7 °F - 39.6 °F 92% 30.07 in 10.0 mi Calm Calm - N/A   Clear
11:55 PM 43.9 °F - 40.5 °F 88% 30.06 in 10.0 mi Calm Calm - N/A   Clear